SCP
0 0 0 0 0 0 0 0 -0 0 0 0 0 0 0 0 0 0 0 0 0 0 0 0 0 0 0 0 0 0 0 0 0 0 0 0 0 0 0 0 0 0 0 0 0 0 0 0 0
0 0 0 0 0 0 0 0 -0 0 0 0 0 0 0 0 0 0 0 0 0 0 0 0 0 0 0 0 0 0 0 0 0 0 0 0 0 0 0 0 0 0 0 0 0 0 0 0 0
0 0 0 0 0 0 0 0 0 0 0 0 0 0 0 0 0 0 0 0 0 0 0 0 0 0 0 0 0 0 0 0 0 0 0 0 0 0 0 0 0 0 0 0 0 0 0 0 0
0 0 0 0 0 0 0 0 0 0 0 0 0 0 0 0 0 0 0 0 0 0 0 0 0 0 0 0 0 0 0 0 0 0 0 0 0 0 0 0 0 0 0 0 0 0 0 0 0
0 0 0 0 0 0 0 0 0 0 0 0 0 0 0 0 0 0 0 0 0 0 0 0 0 0 0 0 0 0 0 0 0 0 0 0 0 0 0 0 0 0 0 0 0 0 0 0 0
0 0 0 0 0 0 0 0 0 0 0 0 0 0 0 0 0 0 0 0 0 0 0 0 0 0 0 0 0 0 0 0 0 0 0 0 0 0 0 0 0 0 0 0 0 0 0 0 0
0 0 0 0 0 0 0 0 0 0 0 0 0 0 0 0 0 0 0 0 0 0 0 0 0 0 0 0 0 0 0 0 0 0 0 0 0 0 0 0 0 0 0 0 0 0 0 0 0
0 0 0 0 0 0 0 0 0 0 0 0 0 0 0 0 0 0 0 0 0 0 0 0 0 0 0 0 0 0 0 0 0 0 0 0 0 0 0 0 0 0 0 0 0 0 0 0 0
0 0 0 0 0 0 0 0 0 0 0 0 0 0 0 0 0 0 0 0 0 0 0 0 0 0 0 0 0 0 0 0 0 0 0 0 0 0 0 0 0 0 0 0 0 0 0 0 0
0 0 0 0 0 0 0 0 0 0 0 0 0 0 0 0 0 0 0 0 0 0 0 0 0 0 0 0 0 0 0 0 0 0 0 0 0 0 0 0 0 0 0 0 0 0 0 0 0
0 0 0 0 0 0 0 0 0 0 0 0 0 0 0 0 0 0 0 0 0 0 0 0 0 0 0 0 0 0 0 0 0 0 0 0 0 0 0 0 0 0 0 0 0 0 0 0 0
0 0 0 0 0 0 0 0 0 0 0 0 0 0 0 0 0 0 0 0 0 0 0 0 0 0 0 0 0 0 0 0 0 0 0 0 0 0 0 0 0 0 0 0 0 0 0 0 0
0 0 0 0 0 0 0 0 0 0 0 0 0 0 0 0 0 0 0 0 0 0 0 0 0 0 0 0 0 0 0 0 0 0 0 0 0 0 0 0 0 0 0 0 0 0 0 0 0
0 0 0 0 0 0 0 0 0 0 0 0 0 0 0 0 0 0 0 0 0 0 0 0 0 0 0 0 0 0 0 0 0 0 0 0 0 0 0 0 0 0 0 0 0 0 0 0 0
0 0 0 0 0 0 0 0 0 0 0 0 0 0 0 0 0 0 0 0 0 0 0 0 0 0 0 0 0 0 0 0 0 0 0 0 0 0 0 0 0 0 0 0 0 0 0 0 0
0 0 0 0 0 0 0 0 0 0 0 0 0 0 0 0 0 0 0 0 0 0 0 0 0 0 0 0 0 0 0 0 0 0 0 0 0 0 0 0 0 0 0 0 0 0 0 0 0
0 0 0 0 0 0 0 0 0 0 0 0 0 0 0 0 0 0 0 0 0 0 0 0 0 0 0 0 0 0 0 0 0 0 0 0 0 0 0 0 0 0 0 0 0 0 0 0 0
0 0 0 0 0 0 0 0 0 0 0 0 0 0 0 0 0 0 0 0 0 0 0 0 0 0 0 0 0 0 0 0 0 0 0 0 0 0 0 0 0 0 0 0 0 0 0 0 0
0 0 0 0 0 0 0 0 0 0 0 0 0 0 0 0 0 0 0 0 0 0 0 0 0 0 0 0 0 0 0 0 0 0 0 0 0 0 0 0 0 0 0 0 0 0 0 0 0
0 0 0 0 0 0 0 0 0 0 0 0 0 0 0 0 0 0 0 0 0 0 0 0 0 0 0 0 0 0 0 0 0 0 0 0 0 0 0 0 0 0 0 0 0 0 0 0 0
0 0 0 0 0 0 0 0 0 0 0 0 0 0 0 0 0 0 0 0 0 0 0 0 0 0 0 0 0 0 0 0 0 0 0 0 0 0 0 0 0 0 0 0 0 0 0 0 0
0 0 0 0 0 0 0 0 0 0 0 0 0 0 0 0 0 0 0 0 0 0 0 0 0 0 0 0 0 0 0 0 0 0 0 0 0 0 0 0 0 0 0 0 0 0 0 0 0
0 0 0 0 0 0 0 0 0 0 0 0 0 0 0 0 0 0 0 0 0 0 0 0 0 0 0 0 0 0 0 0 0 0 0 0 0 0 0 0 0 0 0 0 0 0 0 0 0
0 0 0 0 0 0 0 0 0 0 0 0 0 0 0 0 0 0 0 0 0 0 0 0 0 0 0 0 0 0 0 0 0 0 0 0 0 0 0 0 0 0 0 0 0 0 0 0 0
0 0 0 0 0 0 0 0 0 0 0 0 0 0 0 0 0 0 0 0 0 0 0 0 0 0 0 0 0 0 0 0 0 0 0 0 0 0 0 0 0 0 0 0 0 0 0 0 0
0 0 0 0 0 0 0 0 0 0 0 0 0 0 0 0 0 0 0 0 0 0 0 0 0 0 0 0 0 0 0 0 0 0 0 0 0 0 0 0 0 0 0 0 0 0 0 0 0
0 0 0 0 0 0 0 0 0 0 -0 0 0 0 0 0 0 0 0 0 0 0 0 0 0 0 0 0 0 0 0 0 0 0 0 0 0 0 0 0 0 0 0 0 0 0 0 0 0
0 0 0 0 0 0 0 0 0 -0 -0 0 0 0 0 0 0 0 0 0 0 0 0 0 0 0 0 0 0 0 0 0 0 0 0 0 0 0 0 0 0 0 0 0 0 0 0 0 0
0 0 0 0 0 0 0 0 0 0 0 0 0 0 0 0 0 0 0 0 0 0 0 0 0 0 0 0 0 0 0 0 0 0 0 0 0 0 0 0 0 0 0 0 0 0 0 0 0
0 0 0 0 0 0 0 0 0 0 0 0 0 0 0 0 0 0 0 0 0 0 0 0 0 0 0 0 0 0 0 0 0 0 0 0 0 0 0 0 0 0 0 0 0 0 0 0 0
Wind_Speed
15 11 6 3 4 4 2 2 3 3 4 6 5 4 6 9 6 7 5 9 13 15 14 12 11 12 11 10 9 9 9 9 9 9 9 10 10 10 10 10 9 9 10 10 10 10 10 10 10
12 11 5 4 4 3 2 4 4 5 7 5 3 1 2 8 8 8 6 9 12 14 13 12 11 11 11 10 10 9 8 8 8 9 9 9 8 8 8 8 8 8 8 9 9 9 9 9 8
12 8 4 4 4 2 1 5 7 8 6 3 3 2 4 6 7 6 8 9 11 12 12 13 12 11 11 10 9 9 8 7 8 8 8 8 8 8 8 7 6 6 6 7 8 8 7 7 7
6 4 4 4 4 1 2 5 8 8 4 1 1 5 6 5 4 8 10 9 10 11 12 13 13 12 11 10 9 8 8 8 8 8 8 7 7 7 7 6 5 5 5 6 7 6 6 5 5
4 3 4 5 3 0 2 5 5 6 6 5 2 5 7 5 9 11 8 9 9 10 11 12 12 11 11 10 9 8 7 7 7 7 7 7 7 6 6 5 5 4 4 5 5 5 4 3 3
4 3 5 5 4 3 2 3 3 3 4 5 3 4 6 6 8 9 8 8 9 9 11 11 11 10 10 9 8 8 7 7 7 7 7 7 7 6 6 5 5 4 4 4 4 3 2 2 1
4 4 7 7 3 3 4 3 3 3 4 4 2 4 7 7 8 8 8 7 8 9 9 10 9 9 8 8 8 7 7 6 6 6 7 6 7 6 5 5 5 5 4 4 4 3 2 2 1
3 4 7 7 4 4 5 3 1 1 3 3 2 1 7 9 9 8 7 6 8 7 7 9 9 9 8 7 8 8 7 7 6 6 6 7 6 6 6 6 5 6 5 5 5 4 4 3 4
3 4 7 6 4 3 6 4 2 2 2 3 2 6 8 12 9 7 6 5 6 6 6 7 8 8 8 8 10 9 7 7 7 6 7 7 5 6 6 7 8 7 6 6 6 6 6 5 6
3 5 7 4 3 0 4 4 4 4 4 5 5 7 10 10 9 8 8 7 8 7 6 6 7 7 7 6 7 6 6 6 6 5 7 5 5 4 6 8 10 8 7 7 8 8 7 6 4
4 7 6 4 5 3 1 3 3 5 6 6 9 11 11 10 9 8 8 8 8 8 7 6 6 6 6 4 5 4 4 5 6 7 7 6 5 3 3 3 5 5 6 5 6 6 4 5 5
7 8 7 4 2 3 3 4 4 6 4 2 3 10 10 10 9 10 9 8 8 8 9 8 7 6 5 5 4 4 3 3 4 5 6 5 3 3 3 3 4 4 4 4 4 4 6 6 6
9 8 7 5 3 4 5 6 7 7 4 2 3 6 8 8 8 8 7 7 7 8 8 9 8 7 6 5 4 4 4 4 5 4 5 5 4 4 4 3 3 4 4 4 4 4 5 5 5
5 8 8 6 6 5 7 8 8 7 4 4 5 5 7 8 9 8 8 8 8 8 8 9 9 8 7 6 5 4 4 4 4 4 5 6 5 4 4 4 4 4 4 4 4 5 5 4 4
5 7 9 8 8 6 5 9 11 10 7 7 7 7 8 8 8 8 8 8 8 8 8 8 9 9 9 8 7 5 4 4 4 4 5 6 6 5 4 4 4 4 4 5 4 4 4 4 4
4 7 8 9 10 7 7 12 9 8 9 9 8 8 7 8 8 7 8 7 7 7 8 8 7 9 9 8 7 5 5 5 5 4 4 6 6 6 5 4 4 5 4 4 4 4 3 4 4
7 8 10 8 10 8 10 10 7 6 8 9 9 8 8 8 8 8 8 8 7 8 8 8 9 9 9 8 7 6 5 5 5 5 5 6 7 7 5 4 4 4 4 4 4 4 4 4 4
8 9 10 11 7 9 12 11 8 6 7 8 9 8 8 8 8 7 8 8 7 6 7 8 8 9 8 7 5 5 5 5 5 5 6 7 6 7 6 5 5 4 4 4 4 4 4 4 3
8 9 11 9 6 7 12 13 12 10 9 9 9 8 8 8 7 7 7 7 7 7 7 7 7 8 7 6 6 6 7 6 5 5 6 7 7 7 7 5 5 5 4 5 5 5 5 4 3
13 13 13 9 5 5 9 14 12 12 12 11 11 10 9 7 6 6 7 7 7 8 7 7 7 7 7 7 6 5 5 5 6 5 6 8 8 8 7 7 6 6 5 6 6 5 4 4 3
16 15 13 10 5 6 8 12 15 14 14 13 12 10 9 9 8 7 6 6 6 6 7 6 6 6 7 7 5 4 4 3 4 5 6 7 8 8 8 8 7 6 6 6 7 6 7 5 4
15 12 11 10 7 6 6 10 10 12 14 14 13 11 10 9 8 6 5 4 4 4 3 4 4 4 5 5 6 7 7 7 7 5 5 6 8 8 8 8 8 7 6 7 6 7 6 6 5
9 5 8 9 8 9 9 10 8 8 12 12 12 11 10 8 7 6 4 4 3 3 3 3 3 3 4 5 6 7 7 6 4 4 5 5 6 7 7 7 7 7 6 7 6 6 7 6 6
5 3 5 6 6 13 14 13 10 9 11 8 8 7 7 7 6 5 3 3 2 2 2 2 3 3 3 4 5 6 6 6 5 5 5 4 4 4 6 6 6 7 6 6 7 7 7 7 7
8 6 5 7 9 11 9 12 11 7 7 7 7 5 6 6 6 5 4 3 3 2 2 2 3 3 3 3 4 5 6 6 6 5 4 4 3 3 4 5 6 5 6 6 6 6 6 7 7
12 12 9 7 6 5 7 13 8 4 5 6 5 4 4 5 5 5 5 4 4 3 3 2 2 2 1 2 3 3 4 3 3 4 3 3 3 3 3 4 5 5 5 5 5 5 6 5 7
10 13 9 7 5 6 7 7 7 4 5 5 6 6 6 6 5 5 4 4 3 3 2 2 2 2 1 0 0 0 1 1 2 1 2 1 1 2 3 3 4 5 5 5 5 5 5 5 6
10 6 5 8 8 11 9 11 8 6 8 8 8 7 7 6 5 4 4 4 3 3 2 2 2 2 1 1 1 0 0 1 1 1 1 1 1 1 1 2 3 3 3 4 5 4 5 5 5
9 11 9 6 6 7 8 7 5 8 8 9 9 8 7 6 5 4 4 4 3 3 2 2 2 2 1 1 1 1 0 0 0 0 0 0 0 1 1 1 1 2 2 2 3 4 4 5 4
10 12 12 10 9 8 8 8 3 2 1 3 4 4 4 4 4 4 4 4 3 3 3 2 2 2 1 1 1 1 1 1 0 0 1 0 0 0 1 1 1 1 1 1 2 3 3 3 4
Wind_Direction
310 300 279 258 246 237 194 121 108 105 85 56 42 9 33 47 44 95 124 120 118 124 132 140 136 136 132 129 125 122 123 122 119 116 114 109 105 103 99 95 92 91 90 88 85 82 81 79 77
304 301 283 241 250 252 173 139 116 87 87 93 89 334 79 81 85 106 119 118 124 128 138 141 137 138 137 134 131 128 125 124 124 121 118 115 111 109 105 100 96 94 93 92 88 83 83 80 77
294 279 266 254 254 270 163 116 108 92 98 123 128 38 42 79 103 116 124 129 127 128 132 134 139 141 141 140 139 137 136 135 133 129 126 122 120 117 112 107 102 97 97 99 95 88 86 81 77
299 275 245 256 261 345 94 109 112 124 128 153 151 116 84 57 82 112 127 135 130 129 129 138 143 145 146 146 146 146 145 144 141 139 135 129 127 125 122 119 113 106 103 104 102 95 90 84 79
272 254 253 253 249 124 86 101 129 151 155 162 195 113 98 90 99 117 139 139 133 131 130 144 147 149 152 153 154 156 156 153 151 149 147 140 136 136 137 135 131 121 118 113 109 107 99 86 81
281 262 255 241 212 174 136 132 172 163 137 137 172 127 107 126 125 136 144 143 135 131 131 143 148 152 156 159 162 165 163 160 158 158 157 153 150 151 154 155 153 150 148 145 138 131 124 112 88
288 277 266 260 212 187 152 160 196 166 152 142 162 127 123 141 131 139 143 148 136 132 135 146 157 161 162 165 167 169 167 164 162 162 162 158 160 163 166 168 174 176 176 178 176 175 186 202 222
299 282 260 253 221 203 152 172 209 212 123 86 352 112 136 140 135 140 145 144 133 136 147 155 163 169 171 173 177 173 172 172 168 164 165 165 170 173 177 183 190 195 195 197 202 208 217 232 238
279 255 254 249 230 186 148 179 170 20 88 116 76 54 104 125 133 139 144 144 138 150 164 166 167 172 173 175 176 176 178 181 178 174 176 174 187 188 189 200 190 196 203 208 213 219 226 232 238
235 247 256 285 312 33 159 189 175 179 192 170 142 108 115 131 149 159 167 173 168 174 185 178 175 176 176 177 162 178 184 184 193 190 182 195 207 198 186 185 185 192 202 213 222 226 231 233 236
243 247 266 291 339 354 271 226 211 215 214 193 171 153 149 157 168 177 183 186 184 182 186 188 185 181 179 172 166 178 184 179 194 198 185 191 201 189 175 162 176 194 205 215 221 219 224 227 232
258 263 271 276 333 316 283 269 248 239 243 67 116 147 154 170 182 188 192 191 186 186 185 188 187 187 188 183 179 179 179 180 187 194 190 186 189 194 188 184 180 187 194 205 211 205 216 225 232
247 260 266 268 262 269 277 264 263 255 242 115 95 136 166 183 192 195 193 192 185 190 187 185 186 191 192 193 192 189 187 186 190 190 191 191 188 194 201 198 195 196 196 196 208 216 223 225 231
265 267 260 255 243 244 250 257 254 250 237 200 184 187 192 195 192 190 191 195 195 193 193 187 189 194 194 194 195 197 194 192 196 192 191 195 197 197 200 201 200 205 208 207 205 216 224 227 228
268 269 257 240 233 231 240 251 239 242 238 228 212 207 206 205 196 196 196 196 196 193 193 190 190 191 196 199 200 199 196 194 197 199 197 197 199 204 201 200 201 204 207 211 215 226 229 231 232
232 245 242 223 215 214 214 245 235 224 224 233 231 222 211 209 203 201 201 199 197 191 193 192 187 190 196 199 201 201 199 196 198 199 202 206 204 204 205 206 208 202 199 199 207 218 229 235 238
211 228 234 230 206 201 211 244 240 227 223 228 230 228 219 214 208 205 203 200 197 193 191 191 189 193 196 197 197 202 204 201 197 197 203 208 209 207 206 211 212 203 201 203 207 211 217 232 241
208 223 233 231 204 208 220 237 241 238 235 238 237 233 226 221 214 206 200 195 190 190 191 191 191 193 193 191 192 202 209 211 205 203 206 208 210 209 208 211 214 210 208 208 210 218 219 230 244
249 248 248 247 228 221 235 242 241 239 233 239 242 241 237 228 219 210 198 186 180 187 194 197 196 194 187 187 191 199 208 209 211 211 208 211 212 211 210 212 214 214 216 215 212 216 224 231 230
240 252 259 269 260 240 254 257 252 242 238 231 233 235 235 234 230 221 203 188 187 191 195 199 200 197 192 192 192 193 192 201 208 208 210 212 214 214 213 214 214 213 219 222 218 215 221 225 198
229 232 242 252 277 268 273 265 247 243 240 237 232 230 233 230 231 231 215 197 192 195 193 193 197 199 198 191 181 181 192 205 207 211 213 214 215 216 214 215 215 216 216 223 222 217 217 227 218
235 229 238 246 249 250 229 267 246 236 232 230 228 225 227 229 232 231 224 209 193 189 180 186 196 200 200 189 187 189 197 208 212 208 209 207 210 216 216 216 216 218 219 222 222 220 220 221 230
237 225 230 237 243 255 240 258 256 233 235 228 223 220 218 215 218 225 215 198 180 162 161 180 194 205 204 195 195 199 209 214 212 204 209 209 208 210 214 215 217 220 223 225 222 221 221 221 227
226 228 246 242 236 246 231 239 261 221 231 227 220 214 205 201 203 203 195 165 154 146 155 176 187 205 206 200 199 201 209 210 208 210 211 211 208 206 209 213 216 220 224 226 227 225 225 225 228
208 194 207 211 218 239 208 228 247 217 222 222 220 211 201 193 195 194 188 177 169 166 174 176 178 200 209 205 204 206 211 212 214 214 212 209 209 209 212 212 219 222 226 227 227 228 231 229 230
207 205 210 212 219 239 203 228 245 217 217 216 213 209 206 198 191 185 178 174 172 173 175 175 175 184 189 208 214 211 211 214 218 215 210 212 214 213 213 213 218 222 225 229 229 231 233 234 235
212 219 230 255 268 266 242 246 245 212 210 212 205 204 208 199 186 177 173 169 164 168 178 177 169 164 158 168 176 200 216 209 209 212 210 218 229 224 219 218 219 223 223 225 228 232 234 235 236
222 213 212 217 226 242 242 238 239 219 213 212 211 211 210 195 182 172 173 164 162 166 165 154 151 159 154 122 126 140 198 226 214 174 201 226 258 264 231 223 225 228 227 229 230 237 236 236 240
208 215 221 224 222 226 248 245 227 219 214 210 208 209 197 185 179 177 176 168 165 165 164 160 156 146 136 134 132 119 103 63 93 132 198 239 265 292 282 258 238 235 235 234 234 241 245 243 248
227 223 218 226 233 233 251 256 317 328 271 222 220 207 188 177 172 172 175 172 175 177 172 169 159 152 162 161 154 149 132 125 140 219 302 313 291 300 296 301 272 262 267 256 246 256 259 255 260